Weather History for St. Cloud, MN

Change the Weather History Date:

Tuesday, May 21, 2013

  Actual Average Record
Temperature  
Mean Temperature 48 °F 58 °F  
Max Temperature 50 °F 70 °F 95 °F (1964)
Min Temperature 45 °F 46 °F 30 °F (1979)
Degree Days  
Heating Degree Days 17 8  
Month to date heating degree days 252 222  
Since 1 July heating degree days 8706 8389  
Cooling Degree Days 0 1  
Month to date cooling degree days 8 13  
Year to date cooling degree days 8 15  
Moisture  
Dew Point 46 °F    
Average Humidity 93    
Maximum Humidity 100    
Minimum Humidity 86    
Precipitation  
Precipitation 0.49 in 0.09 in 2.00 in (1916)
Month to date precipitation 3.96 1.96  
Year to date precipitation 11.27 7.32  
Snow  
Snow 0.00 in 0.00 in 0.00 in ()
Month to date snowfall 0.0 0.0  
Since 1 July snowfall 78.5 45.7  
Snow Depth 0.00 in    
Sea Level Pressure  
Sea Level Pressure 29.67 in    
Wind  
Wind Speed 10 mph (NE)    
Max Wind Speed 16 mph    
Max Gust Speed 22 mph    
Visibility 6 miles    
Events Rain    
T = Trace of Precipitation, MM = Missing Value Source: NWS Daily Summary

Daily Weather History Graph

Daily Weather History Graph

Search for Another Location

Airport:

Trip Planner

Search our weather history database for the weather conditions in past years. The results will help you decide how hot, cold, wet, or windy it might be!

Date:

Astronomy

May. 21, 2013 Rise Set
Actual Time 5:38 AM CDT 8:47 PM CDT
Civil Twilight 5:03 AM CDT 9:23 PM CDT
Nautical Twilight 4:17 AM CDT 10:09 PM CDT
Astronomical Twilight 3:21 AM CDT 11:05 PM CDT
Moon 4:52 PM CDT (5/21) 3:19 AM CDT (5/21)
Length of Visible Light 16h 19m
Length of Day
15h 08m
Waxing Gibbous, 84% of the Moon is Illuminated
May 21
Waxing Gibbous
May 24
Full
May 31
Last Quarter
Jun 8
New
Jun 16
First Quarter

Hourly Weather History & Observations

Time (CDT) Temp. Windchill Dew Point Humidity Pressure Visibility Wind Dir Wind Speed Gust Speed Precip Events Conditions
12:53 AM 50.0 °F - 48.9 °F 96% 29.57 in 10.0 mi ENE 9.2 mph 18.4 mph 0.02 in   Overcast
1:01 AM 50.0 °F - 48.2 °F 94% 29.55 in 7.0 mi ENE 9.2 mph 17.3 mph 0.00 in Rain Light Rain
1:15 AM 48.2 °F - 48.2 °F 100% 29.55 in 10.0 mi East 9.2 mph - 0.00 in Rain Light Rain
1:53 AM 48.9 °F - 48.0 °F 97% 29.58 in 9.0 mi East 8.1 mph - 0.01 in Rain Light Rain
2:40 AM 48.2 °F - 46.4 °F 93% 29.54 in 10.0 mi ENE 10.4 mph - 0.00 in   Overcast
2:53 AM 48.0 °F - 46.9 °F 96% 29.57 in 10.0 mi ENE 9.2 mph - 0.00 in   Overcast
3:43 AM 46.4 °F 42.4 °F 46.4 °F 100% 29.55 in 10.0 mi ENE 8.1 mph - N/A   Overcast
3:53 AM 46.9 °F - 46.0 °F 97% 29.57 in 10.0 mi ENE 11.5 mph - N/A   Overcast
4:53 AM 46.9 °F - 46.0 °F 97% 29.58 in 10.0 mi ENE 10.4 mph 18.4 mph N/A   Overcast
5:53 AM 46.9 °F - 46.0 °F 97% 29.58 in 10.0 mi NE 8.1 mph - N/A   Overcast
6:53 AM 46.9 °F - 45.0 °F 93% 29.59 in 10.0 mi ENE 10.4 mph - N/A   Overcast
7:53 AM 46.0 °F 41.0 °F 45.0 °F 96% 29.61 in 10.0 mi ENE 10.4 mph - N/A   Overcast
8:53 AM 46.9 °F - 45.0 °F 93% 29.62 in 10.0 mi ENE 10.4 mph 17.3 mph N/A   Overcast
9:53 AM 46.9 °F - 45.0 °F 93% 29.62 in 10.0 mi NE 10.4 mph 19.6 mph N/A   Overcast
10:53 AM 46.9 °F - 45.0 °F 93% 29.64 in 10.0 mi ENE 12.7 mph - 0.00 in Rain Light Rain
11:53 AM 48.0 °F - 46.0 °F 93% 29.66 in 6.0 mi NE 8.1 mph - 0.00 in   Overcast
12:31 PM 48.2 °F - 46.4 °F 93% 29.62 in 1.8 mi NE 9.2 mph - N/A   Overcast
12:53 PM 48.0 °F - 46.0 °F 93% 29.66 in 2.5 mi NE 10.4 mph 16.1 mph N/A   Overcast
1:00 PM 48.2 °F - 46.4 °F 93% 29.63 in 5.0 mi NE 9.2 mph 17.3 mph N/A   Overcast
1:53 PM 50.0 °F - 46.0 °F 86% 29.67 in 10.0 mi NE 9.2 mph - N/A   Overcast
2:10 PM 50.0 °F - 46.4 °F 87% 29.64 in 9.0 mi NE 10.4 mph - 0.00 in Rain Light Rain
2:45 PM 48.2 °F - 46.4 °F 93% 29.64 in 2.5 mi NE 8.1 mph - 0.04 in Rain Light Rain
2:53 PM 50.0 °F - 48.0 °F 93% 29.68 in 3.0 mi NE 6.9 mph - 0.06 in Rain Light Rain
3:26 PM 50.0 °F - 48.2 °F 94% 29.67 in 1.8 mi Variable 6.9 mph - 0.02 in Rain Light Rain
3:37 PM 48.2 °F - 46.4 °F 93% 29.67 in 1.8 mi ENE 8.1 mph - 0.06 in Rain Rain
3:45 PM 48.2 °F - 46.4 °F 93% 29.67 in 2.0 mi ENE 5.8 mph - 0.08 in Rain Rain
3:53 PM 48.9 °F - 46.9 °F 93% 29.71 in 2.5 mi ENE 5.8 mph - 0.11 in Rain Rain
4:27 PM 48.2 °F - 46.4 °F 93% 29.68 in 4.0 mi NE 5.8 mph - 0.06 in Rain Light Rain
4:40 PM 48.2 °F - 46.4 °F 93% 29.69 in 5.0 mi ENE 6.9 mph - 0.08 in Rain Light Rain
4:49 PM 48.2 °F - 46.4 °F 93% 29.69 in 3.0 mi NE 6.9 mph - 0.08 in Rain Light Rain
4:53 PM 48.9 °F - 46.9 °F 93% 29.73 in 3.0 mi NE 10.4 mph - 0.09 in Rain Light Rain
5:00 PM 48.2 °F - 46.4 °F 93% 29.69 in 2.5 mi ENE 4.6 mph - 0.01 in Rain Light Rain
5:10 PM 48.2 °F - 46.4 °F 93% 29.70 in 4.0 mi NE 11.5 mph 17.3 mph 0.02 in Rain Light Rain
5:53 PM 48.0 °F - 46.0 °F 93% 29.74 in 5.0 mi NE 9.2 mph 18.4 mph 0.08 in Rain Light Rain
6:06 PM 48.2 °F - 46.4 °F 93% 29.69 in 2.5 mi NE 12.7 mph - 0.02 in Rain Light Rain
6:41 PM 46.4 °F 40.4 °F 44.6 °F 93% 29.69 in 10.0 mi NNE 13.8 mph 21.9 mph 0.05 in Rain Light Rain
6:53 PM 46.9 °F - 45.0 °F 93% 29.74 in 10.0 mi NNE 9.2 mph 19.6 mph 0.05 in Rain Light Rain
7:33 PM 46.4 °F 40.7 °F 44.6 °F 93% 29.70 in 6.0 mi NE 12.7 mph 17.3 mph 0.02 in Rain Light Rain
7:53 PM 46.9 °F - 44.1 °F 90% 29.75 in 10.0 mi NE 9.2 mph 17.3 mph 0.03 in Rain Light Rain
8:53 PM 46.9 °F - 44.1 °F 90% 29.77 in 6.0 mi NE 10.4 mph - 0.00 in Rain Light Rain
9:16 PM 46.4 °F 42.9 °F 44.6 °F 93% 29.74 in 2.5 mi NE 6.9 mph - 0.03 in Rain Light Rain
9:45 PM 46.4 °F 41.9 °F 44.6 °F 93% 29.75 in 4.0 mi NE 9.2 mph 17.3 mph 0.06 in Rain Light Rain
9:53 PM 46.0 °F 41.0 °F 44.1 °F 93% 29.79 in 4.0 mi NE 10.4 mph 19.6 mph 0.06 in Rain Light Rain
9:55 PM 46.4 °F 41.5 °F 44.6 °F 93% 29.75 in 4.0 mi NE 10.4 mph 19.6 mph 0.00 in Rain Light Rain
10:02 PM 46.4 °F 41.5 °F 44.6 °F 93% 29.75 in 4.0 mi NE 10.4 mph - 0.00 in Rain Light Rain
10:53 PM 46.0 °F 41.9 °F 43.0 °F 89% 29.80 in 10.0 mi NNE 8.1 mph 16.1 mph 0.00 in   Overcast
11:22 PM 46.4 °F 41.5 °F 42.8 °F 87% 29.74 in 10.0 mi NNE 10.4 mph - N/A   Overcast
11:53 PM 46.0 °F 41.9 °F 43.0 °F 89% 29.78 in 10.0 mi NNE 8.1 mph - N/A   Overcast